Location: Aula-Vintri
(58.3875°N, 22.4322°E)
Time: 15:33:42
(UTC+00:00)

Cosmos 1833 Rocket - Pass Details

Date: 13 October 2019
Orbit: 833 x 839 km, 71.0° (Epoch: 21 November)

Event Time Altitude Azimuth Distance (km) Brightness Sun altitude
Rises 16:10:10 0° 317° (NW) 3,393 6.4 -5.8°
Reaches altitude 10° 16:12:46 10° 325° (NW) 2,457 5.6 -6.2°
Maximum altitude 16:18:05 41° 35° (NE) 1,207 3.3 -6.9°
Drops below altitude 10° 16:23:22 10° 105° (ESE) 2,451 4.5 -7.6°
Enters shadow 16:24:00 - 107° (ESE) 2,671 4.7 -7.6°
